AIC2971 VIDP-VAPO

Flight info

Callsign AIC2971
Flight time 1h 40m
Altitude 32000
Route AKRIB6A AKRIB W19 IKAVA/N0461F310 W19 BPL/N0464F320 W146 AAU G450 OPAKA
Aircraft A320/M-SDE3FGHIRWY/LB1

Departure

Time 2026-04-18 03:57
Airport Indira Gandhi International Airport (VIDP)

Arrival

Time 2026-04-18 05:37
Airport Pune International Airport (VAPO)
Time Latitude Longitude Altitude Speed Heading
2026-04-18 03:37 28.55141 77.08024 773 ft 0 kts 141°
2026-04-18 03:46 28.55151 77.08015 745 ft 3 kts 144°
2026-04-18 03:46 28.55168 77.08002 773 ft 3 kts 152°
2026-04-18 03:47 28.55186 77.07993 773 ft 3 kts 163°
2026-04-18 03:47 28.55205 77.07988 773 ft 3 kts 187°
2026-04-18 03:47 28.55221 77.07994 773 ft 2 kts 236°
2026-04-18 03:47 28.55225 77.08001 773 ft 0 kts 239°
2026-04-18 03:49 28.55224 77.07999 773 ft 2 kts 239°
2026-04-18 03:50 28.55204 77.07962 773 ft 6 kts 239°
2026-04-18 03:50 28.55168 77.07916 773 ft 12 kts 210°
2026-04-18 03:50 28.55086 77.07946 772 ft 14 kts 110°
2026-04-18 03:50 28.55058 77.08073 772 ft 19 kts 104°
2026-04-18 03:51 28.55022 77.08227 772 ft 21 kts 104°
2026-04-18 03:51 28.54985 77.08389 772 ft 22 kts 105°
2026-04-18 03:51 28.54944 77.08560 772 ft 23 kts 104°
2026-04-18 03:51 28.54903 77.08741 772 ft 24 kts 104°
2026-04-18 03:52 28.54860 77.08929 772 ft 24 kts 104°
2026-04-18 03:52 28.54820 77.09105 772 ft 22 kts 105°
2026-04-18 03:52 28.54781 77.09275 772 ft 23 kts 104°
2026-04-18 03:52 28.54740 77.09447 772 ft 22 kts 104°
2026-04-18 03:53 28.54706 77.09600 772 ft 18 kts 104°
2026-04-18 03:53 28.54678 77.09714 772 ft 12 kts 105°
2026-04-18 03:53 28.54653 77.09818 772 ft 13 kts 105°
2026-04-18 03:53 28.54631 77.09914 772 ft 15 kts 104°
2026-04-18 03:54 28.54597 77.10065 772 ft 24 kts 104°
2026-04-18 03:54 28.54550 77.10271 772 ft 28 kts 104°
2026-04-18 03:54 28.54506 77.10466 772 ft 18 kts 104°
2026-04-18 03:54 28.54473 77.10578 772 ft 12 kts 127°
2026-04-18 03:55 28.54406 77.10584 771 ft 12 kts 187°
2026-04-18 03:55 28.54331 77.10562 769 ft 10 kts 193°
2026-04-18 03:55 28.54262 77.10545 764 ft 12 kts 192°
2026-04-18 03:55 28.54213 77.10489 763 ft 11 kts 280°
2026-04-18 03:56 28.54238 77.10383 763 ft 25 kts 284°
2026-04-18 03:56 28.54343 77.09904 761 ft 96 kts 284°
2026-04-18 03:56 28.54551 77.08949 762 ft 151 kts 283°
2026-04-18 03:56 28.54829 77.07655 1001 ft 175 kts 284°
2026-04-18 03:57 28.55439 77.04817 1864 ft 201 kts 272°
2026-04-18 03:57 28.54995 77.03260 2049 ft 221 kts 230°
2026-04-18 03:57 28.53689 77.02271 2271 ft 239 kts 194°
2026-04-18 03:58 28.51993 77.01847 2575 ft 261 kts 191°
2026-04-18 03:58 28.50181 77.01415 3183 ft 269 kts 192°
2026-04-18 03:58 28.48334 77.00969 3947 ft 272 kts 192°
2026-04-18 03:58 28.46474 77.00512 4749 ft 274 kts 193°
2026-04-18 03:59 28.44605 77.00048 5507 ft 276 kts 194°
2026-04-18 03:59 28.42718 76.99576 6280 ft 279 kts 194°
2026-04-18 03:59 28.40819 76.99100 7012 ft 281 kts 194°
2026-04-18 03:59 28.38900 76.98620 7744 ft 283 kts 194°
2026-04-18 04:00 28.36965 76.98136 8485 ft 286 kts 194°
2026-04-18 04:00 28.35012 76.97648 9227 ft 289 kts 194°
2026-04-18 04:00 28.33040 76.97155 9967 ft 292 kts 195°
2026-04-18 04:00 28.31049 76.96656 10649 ft 294 kts 195°
2026-04-18 04:01 28.29040 76.96154 11327 ft 298 kts 195°
2026-04-18 04:01 28.27007 76.95646 11998 ft 301 kts 195°
2026-04-18 04:01 28.24951 76.95131 12683 ft 304 kts 195°
2026-04-18 04:01 28.22872 76.94618 13330 ft 309 kts 194°
2026-04-18 04:02 28.20682 76.94152 13489 ft 332 kts 192°
2026-04-18 04:02 28.18331 76.93722 13625 ft 352 kts 191°
2026-04-18 04:02 28.15843 76.93296 13829 ft 369 kts 191°
2026-04-18 04:02 28.13283 76.92860 14309 ft 374 kts 191°
2026-04-18 04:03 28.10699 76.92410 14880 ft 377 kts 191°
2026-04-18 04:03 28.08101 76.91948 15479 ft 379 kts 192°
2026-04-18 04:03 28.05485 76.91476 16091 ft 381 kts 192°
2026-04-18 04:03 28.02858 76.90997 16713 ft 383 kts 192°
2026-04-18 04:04 28.00214 76.90511 17306 ft 386 kts 192°
2026-04-18 04:04 27.97558 76.90023 17933 ft 388 kts 192°
2026-04-18 04:04 27.94884 76.89534 18499 ft 391 kts 192°
2026-04-18 04:04 27.92185 76.89041 18997 ft 394 kts 192°
2026-04-18 04:05 27.89469 76.88545 19520 ft 397 kts 193°
2026-04-18 04:05 27.86730 76.88046 20016 ft 400 kts 193°
2026-04-18 04:05 27.83973 76.87544 20513 ft 403 kts 193°
2026-04-18 04:05 27.81230 76.87045 20984 ft 406 kts 193°
2026-04-18 04:06 27.78430 76.86535 21451 ft 409 kts 193°
2026-04-18 04:06 27.75609 76.86022 21914 ft 412 kts 193°
2026-04-18 04:06 27.72763 76.85503 22358 ft 415 kts 193°
2026-04-18 04:06 27.69902 76.84985 22794 ft 418 kts 193°
2026-04-18 04:07 27.67016 76.84463 23223 ft 421 kts 193°
2026-04-18 04:07 27.64113 76.83938 23605 ft 423 kts 193°
2026-04-18 04:07 27.61194 76.83410 23955 ft 425 kts 193°
2026-04-18 04:07 27.58265 76.82880 24313 ft 427 kts 193°
2026-04-18 04:08 27.55319 76.82346 24661 ft 429 kts 193°
2026-04-18 04:08 27.52368 76.81810 25012 ft 431 kts 193°
2026-04-18 04:08 27.49401 76.81273 25341 ft 433 kts 193°
2026-04-18 04:08 27.46424 76.80736 25690 ft 434 kts 193°
2026-04-18 04:09 27.43440 76.80197 26032 ft 435 kts 193°
2026-04-18 04:09 27.40445 76.79626 26354 ft 436 kts 195°
2026-04-18 04:09 27.37476 76.78934 26667 ft 437 kts 197°
2026-04-18 04:09 27.35512 76.78415 26877 ft 437 kts 198°
2026-04-18 04:10 27.32559 76.77578 27193 ft 439 kts 198°
2026-04-18 04:10 27.28602 76.76423 27581 ft 441 kts 198°
2026-04-18 04:10 27.25621 76.75569 27867 ft 443 kts 198°
2026-04-18 04:10 27.23635 76.75016 28050 ft 444 kts 198°
2026-04-18 04:11 27.19641 76.73931 28414 ft 446 kts 197°
2026-04-18 04:11 27.17599 76.73388 28584 ft 447 kts 197°
2026-04-18 04:11 27.14559 76.72587 28831 ft 449 kts 197°
2026-04-18 04:11 27.11552 76.71794 29084 ft 450 kts 197°
2026-04-18 04:12 27.08495 76.70985 29321 ft 452 kts 197°
2026-04-18 04:12 27.05440 76.70173 29609 ft 451 kts 197°
2026-04-18 04:12 27.02385 76.69359 29948 ft 450 kts 197°
2026-04-18 04:12 26.99341 76.68547 30240 ft 449 kts 197°
2026-04-18 04:13 26.96307 76.67735 30536 ft 448 kts 197°
2026-04-18 04:13 26.93281 76.66924 30840 ft 446 kts 197°
2026-04-18 04:13 26.90269 76.66119 31137 ft 444 kts 197°
2026-04-18 04:13 26.87263 76.65321 31444 ft 443 kts 197°
2026-04-18 04:14 26.84269 76.64525 31746 ft 441 kts 197°
2026-04-18 04:14 26.81281 76.63731 31864 ft 440 kts 198°
2026-04-18 04:14 26.78304 76.62938 31884 ft 439 kts 198°
2026-04-18 04:15 26.72363 76.61358 31886 ft 438 kts 198°
2026-04-18 04:15 26.66424 76.59777 31889 ft 438 kts 198°
2026-04-18 04:16 26.60529 76.58210 31882 ft 438 kts 197°
2026-04-18 04:16 26.56558 76.57155 31888 ft 438 kts 197°
2026-04-18 04:18 26.36311 76.51831 31869 ft 438 kts 197°
2026-04-18 04:18 26.30369 76.50279 31868 ft 438 kts 197°
2026-04-18 04:19 26.24419 76.48727 31874 ft 438 kts 197°
2026-04-18 04:19 26.18474 76.47175 31805 ft 437 kts 197°
2026-04-18 04:19 26.15561 76.46416 31162 ft 436 kts 197°
2026-04-18 04:20 26.12586 76.45641 30923 ft 440 kts 197°
2026-04-18 04:20 26.06596 76.44075 30878 ft 443 kts 197°
2026-04-18 04:21 26.00588 76.42513 30881 ft 443 kts 197°
2026-04-18 04:21 25.94558 76.41002 30872 ft 446 kts 193°
2026-04-18 04:22 25.88303 76.40953 30877 ft 456 kts 175°
2026-04-18 04:22 25.82183 76.42858 30877 ft 461 kts 166°
2026-04-18 04:23 25.76075 76.45041 30872 ft 461 kts 167°
2026-04-18 04:23 25.69959 76.47212 30873 ft 461 kts 166°
2026-04-18 04:24 25.63851 76.49387 30871 ft 460 kts 166°
2026-04-18 04:24 25.57748 76.51555 30870 ft 460 kts 166°
2026-04-18 04:25 25.51656 76.53722 30867 ft 459 kts 166°
2026-04-18 04:25 25.45569 76.55886 30875 ft 459 kts 166°
2026-04-18 04:26 25.39529 76.58035 30875 ft 458 kts 166°
2026-04-18 04:26 25.33452 76.60181 30871 ft 458 kts 166°
2026-04-18 04:27 25.27403 76.62312 30874 ft 458 kts 166°
2026-04-18 04:27 25.21332 76.64455 30875 ft 457 kts 166°
2026-04-18 04:28 25.15266 76.66595 30875 ft 457 kts 167°
2026-04-18 04:28 25.09214 76.68735 30879 ft 457 kts 167°
2026-04-18 04:29 25.03161 76.70869 30878 ft 457 kts 167°
2026-04-18 04:29 24.97102 76.73011 30877 ft 457 kts 166°
2026-04-18 04:30 24.91054 76.75184 30881 ft 457 kts 166°
2026-04-18 04:30 24.85008 76.77367 30882 ft 457 kts 166°
2026-04-18 04:31 24.79002 76.79531 30885 ft 457 kts 166°
2026-04-18 04:31 24.72950 76.81707 30890 ft 457 kts 166°
2026-04-18 04:32 24.66901 76.83881 30890 ft 457 kts 166°
2026-04-18 04:32 24.60852 76.86056 30893 ft 457 kts 167°
2026-04-18 04:33 24.54806 76.88217 30894 ft 457 kts 167°
2026-04-18 04:33 24.48752 76.90381 30897 ft 457 kts 166°
2026-04-18 04:34 24.42701 76.92550 30899 ft 458 kts 167°
2026-04-18 04:34 24.36644 76.94721 30903 ft 458 kts 166°
2026-04-18 04:35 24.30627 76.96905 30905 ft 457 kts 166°
2026-04-18 04:35 24.24587 76.99102 30907 ft 457 kts 167°
2026-04-18 04:36 24.18536 77.01290 30910 ft 457 kts 167°
2026-04-18 04:36 24.12489 77.03475 30911 ft 457 kts 167°
2026-04-18 04:37 24.07463 77.05282 30911 ft 457 kts 167°
2026-04-18 04:37 24.01418 77.07465 30913 ft 457 kts 167°
2026-04-18 04:38 23.95380 77.09644 30919 ft 457 kts 167°
2026-04-18 04:38 23.89342 77.11817 30919 ft 456 kts 167°
2026-04-18 04:39 23.83302 77.13995 30923 ft 456 kts 167°
2026-04-18 04:39 23.77308 77.16150 30923 ft 456 kts 167°
2026-04-18 04:40 23.71279 77.18309 30928 ft 456 kts 167°
2026-04-18 04:40 23.65243 77.20469 30931 ft 456 kts 167°
2026-04-18 04:41 23.59211 77.22633 30935 ft 456 kts 167°
2026-04-18 04:41 23.53185 77.24792 30940 ft 456 kts 167°
2026-04-18 04:42 23.47189 77.26937 30938 ft 456 kts 167°
2026-04-18 04:42 23.41161 77.29088 30941 ft 456 kts 167°
2026-04-18 04:43 23.35133 77.31220 30942 ft 455 kts 169°
2026-04-18 04:43 23.28969 77.31973 31138 ft 441 kts 189°
2026-04-18 04:43 23.25957 77.31503 31464 ft 434 kts 197°
2026-04-18 04:44 23.23101 77.30530 31789 ft 428 kts 206°
2026-04-18 04:44 23.20437 77.29116 31936 ft 424 kts 211°
2026-04-18 04:44 23.17840 77.27604 31949 ft 423 kts 211°
2026-04-18 04:45 23.12650 77.24582 31953 ft 423 kts 211°
2026-04-18 04:45 23.07490 77.21589 31953 ft 423 kts 211°
2026-04-18 04:46 23.02297 77.18583 31953 ft 423 kts 211°
2026-04-18 04:46 22.97093 77.15574 31953 ft 423 kts 211°
2026-04-18 04:47 22.91884 77.12576 31954 ft 423 kts 211°
2026-04-18 04:47 22.86681 77.09574 31953 ft 424 kts 211°
2026-04-18 04:48 22.81470 77.06564 31955 ft 424 kts 211°
2026-04-18 04:48 22.76260 77.03557 31958 ft 424 kts 211°
2026-04-18 04:49 22.71076 77.00576 31955 ft 424 kts 211°
2026-04-18 04:49 22.65862 76.97577 31957 ft 424 kts 211°
2026-04-18 04:50 22.60640 76.94572 31954 ft 424 kts 211°
2026-04-18 04:50 22.55412 76.91576 31959 ft 425 kts 210°
2026-04-18 04:51 22.50186 76.88586 31955 ft 425 kts 210°
2026-04-18 04:51 22.44983 76.85614 31957 ft 425 kts 210°
2026-04-18 04:52 22.39753 76.82620 31957 ft 425 kts 210°
2026-04-18 04:52 22.34518 76.79624 31956 ft 425 kts 210°
2026-04-18 04:53 22.29276 76.76641 31956 ft 425 kts 210°
2026-04-18 04:53 22.24078 76.73673 31958 ft 425 kts 210°
2026-04-18 04:54 22.18848 76.70687 31958 ft 425 kts 210°
2026-04-18 04:54 22.13605 76.67701 31958 ft 425 kts 210°
2026-04-18 04:55 22.08358 76.64722 31956 ft 425 kts 210°
2026-04-18 04:55 22.03123 76.61747 31958 ft 425 kts 210°
2026-04-18 04:56 21.95258 76.57273 31961 ft 426 kts 210°
2026-04-18 04:56 21.90054 76.54321 31956 ft 426 kts 210°
2026-04-18 04:57 21.84818 76.51356 31959 ft 426 kts 210°
2026-04-18 04:57 21.79562 76.48386 31954 ft 426 kts 210°
2026-04-18 04:58 21.74279 76.45401 31955 ft 426 kts 210°
2026-04-18 04:58 21.69029 76.42437 31954 ft 426 kts 210°
2026-04-18 04:59 21.63811 76.39489 31954 ft 426 kts 210°
2026-04-18 04:59 21.58559 76.36525 31952 ft 426 kts 210°
2026-04-18 05:00 21.53307 76.33567 31956 ft 426 kts 210°
2026-04-18 05:00 21.48053 76.30608 31951 ft 426 kts 210°
2026-04-18 05:01 21.42772 76.27670 31952 ft 426 kts 209°
2026-04-18 05:01 21.37469 76.24801 31950 ft 427 kts 209°
2026-04-18 05:02 21.32193 76.21960 31949 ft 427 kts 209°
2026-04-18 05:02 21.26879 76.19081 31949 ft 427 kts 209°
2026-04-18 05:03 21.21572 76.16195 31987 ft 427 kts 209°
2026-04-18 05:03 21.16310 76.13339 31977 ft 426 kts 209°
2026-04-18 05:04 21.11020 76.10473 31972 ft 426 kts 209°
2026-04-18 05:04 21.05741 76.07612 31968 ft 425 kts 209°
2026-04-18 05:05 21.00465 76.04755 31963 ft 425 kts 209°
2026-04-18 05:05 20.95197 76.01909 31959 ft 424 kts 209°
2026-04-18 05:06 20.89927 75.99057 31956 ft 423 kts 210°
2026-04-18 05:06 20.84709 75.96118 31957 ft 422 kts 210°
2026-04-18 05:07 20.79528 75.93150 31948 ft 422 kts 210°
2026-04-18 05:07 20.74375 75.90210 31957 ft 422 kts 210°
2026-04-18 05:08 20.69183 75.87270 31955 ft 422 kts 210°
2026-04-18 05:08 20.63991 75.84344 31956 ft 422 kts 210°
2026-04-18 05:09 20.58796 75.81420 31959 ft 422 kts 210°
2026-04-18 05:09 20.53605 75.78496 31962 ft 422 kts 210°
2026-04-18 05:10 20.48426 75.75573 31964 ft 422 kts 210°
2026-04-18 05:10 20.43231 75.72642 31965 ft 422 kts 210°
2026-04-18 05:11 20.38070 75.69738 31970 ft 421 kts 210°
2026-04-18 05:11 20.33113 75.66475 31962 ft 418 kts 221°
2026-04-18 05:12 20.28635 75.62521 31961 ft 418 kts 221°
2026-04-18 05:12 20.24171 75.58550 31959 ft 418 kts 221°
2026-04-18 05:13 20.19705 75.54577 31958 ft 418 kts 221°
2026-04-18 05:13 20.15236 75.50621 31956 ft 417 kts 221°
2026-04-18 05:14 20.10788 75.46687 31964 ft 419 kts 221°
2026-04-18 05:14 20.06309 75.42726 31959 ft 417 kts 221°
2026-04-18 05:15 20.01845 75.38784 31952 ft 417 kts 221°
2026-04-18 05:15 19.97377 75.34842 31952 ft 417 kts 221°
2026-04-18 05:16 19.92909 75.30896 31958 ft 417 kts 221°
2026-04-18 05:16 19.88442 75.26952 31966 ft 418 kts 221°
2026-04-18 05:17 19.84001 75.23030 31957 ft 418 kts 221°
2026-04-18 05:17 19.79525 75.19094 31959 ft 418 kts 221°
2026-04-18 05:18 19.75046 75.15157 31960 ft 418 kts 220°
2026-04-18 05:18 19.70570 75.11220 31958 ft 418 kts 221°
2026-04-18 05:19 19.66091 75.07286 31621 ft 418 kts 220°
2026-04-18 05:19 19.63874 75.05340 31379 ft 418 kts 220°
2026-04-18 05:19 19.61626 75.03367 31145 ft 420 kts 220°
2026-04-18 05:20 19.59369 75.01386 30913 ft 421 kts 220°
2026-04-18 05:20 19.57113 74.99404 30682 ft 422 kts 220°
2026-04-18 05:20 19.54850 74.97418 29936 ft 424 kts 220°
2026-04-18 05:20 19.52563 74.95412 28744 ft 430 kts 220°
2026-04-18 05:21 19.50267 74.93403 28161 ft 423 kts 220°
2026-04-18 05:21 19.48015 74.91434 27519 ft 418 kts 220°
2026-04-18 05:21 19.45786 74.89481 26884 ft 414 kts 220°
2026-04-18 05:21 19.43572 74.87542 26252 ft 411 kts 220°
2026-04-18 05:22 19.42111 74.86264 25850 ft 410 kts 220°
2026-04-18 05:22 19.39919 74.84347 25235 ft 408 kts 220°
2026-04-18 05:22 19.37027 74.81817 24433 ft 406 kts 220°
2026-04-18 05:22 19.35552 74.80529 24016 ft 405 kts 219°
2026-04-18 05:23 19.33403 74.78655 23399 ft 405 kts 219°
2026-04-18 05:23 19.30505 74.76126 22562 ft 402 kts 219°
2026-04-18 05:23 19.29076 74.74879 22200 ft 401 kts 219°
2026-04-18 05:23 19.26928 74.73002 21658 ft 399 kts 219°
2026-04-18 05:24 19.24101 74.70533 20982 ft 396 kts 219°
2026-04-18 05:24 19.22668 74.69282 20635 ft 394 kts 219°
2026-04-18 05:24 19.20557 74.67438 20151 ft 392 kts 219°
2026-04-18 05:24 19.18489 74.65635 19694 ft 389 kts 219°
2026-04-18 05:25 19.16405 74.63824 19210 ft 387 kts 219°
2026-04-18 05:25 19.14337 74.62023 18743 ft 384 kts 219°
2026-04-18 05:25 19.12277 74.60230 18253 ft 383 kts 219°
2026-04-18 05:25 19.10218 74.58438 17720 ft 382 kts 219°
2026-04-18 05:26 19.08176 74.56661 17216 ft 379 kts 219°
2026-04-18 05:26 19.06146 74.54895 16724 ft 377 kts 219°
2026-04-18 05:26 19.04124 74.53135 16210 ft 375 kts 218°
2026-04-18 05:26 19.02113 74.51386 15703 ft 374 kts 218°
2026-04-18 05:27 19.00099 74.49637 15170 ft 374 kts 218°
2026-04-18 05:27 18.98095 74.47894 14647 ft 373 kts 218°
2026-04-18 05:27 18.96093 74.46154 14114 ft 372 kts 218°
2026-04-18 05:27 18.94093 74.44415 13551 ft 372 kts 218°
2026-04-18 05:28 18.92130 74.42708 12991 ft 357 kts 218°
2026-04-18 05:28 18.90252 74.41077 12471 ft 343 kts 218°
2026-04-18 05:28 18.88435 74.39503 11965 ft 335 kts 218°
2026-04-18 05:28 18.86638 74.37946 11447 ft 334 kts 218°
2026-04-18 05:29 18.84842 74.36391 10940 ft 332 kts 218°
2026-04-18 05:29 18.83076 74.34862 10529 ft 320 kts 218°
2026-04-18 05:29 18.81409 74.33416 10268 ft 301 kts 218°
2026-04-18 05:29 18.79832 74.32047 10045 ft 295 kts 218°
2026-04-18 05:30 18.78252 74.30679 9864 ft 293 kts 217°
2026-04-18 05:30 18.76674 74.29314 9730 ft 293 kts 218°
2026-04-18 05:30 18.75097 74.27952 9611 ft 293 kts 218°
2026-04-18 05:30 18.73520 74.26590 9319 ft 293 kts 218°
2026-04-18 05:31 18.71951 74.25232 8872 ft 291 kts 218°
2026-04-18 05:31 18.70394 74.23881 8428 ft 289 kts 218°
2026-04-18 05:31 18.68839 74.22537 7994 ft 288 kts 218°
2026-04-18 05:31 18.67288 74.21198 7566 ft 288 kts 218°
2026-04-18 05:32 18.65742 74.19863 7140 ft 285 kts 218°
2026-04-18 05:32 18.64232 74.18556 6721 ft 277 kts 218°
2026-04-18 05:32 18.62764 74.17288 6305 ft 269 kts 217°
2026-04-18 05:32 18.61334 74.16052 5865 ft 263 kts 218°
2026-04-18 05:33 18.59925 74.14838 5453 ft 261 kts 218°
2026-04-18 05:33 18.58557 74.13592 5034 ft 258 kts 227°
2026-04-18 05:33 18.57575 74.12031 4614 ft 256 kts 246°
2026-04-18 05:33 18.57137 74.10224 4179 ft 255 kts 267°
2026-04-18 05:34 18.57192 74.08371 3798 ft 251 kts 275°
2026-04-18 05:34 18.57306 74.06610 3739 ft 231 kts 276°
2026-04-18 05:34 18.57409 74.04994 3738 ft 216 kts 275°
2026-04-18 05:34 18.57504 74.03493 3752 ft 193 kts 275°
2026-04-18 05:35 18.57589 74.02146 3531 ft 180 kts 275°
2026-04-18 05:35 18.57669 74.00866 3338 ft 172 kts 275°
2026-04-18 05:35 18.57748 73.99621 3100 ft 167 kts 275°
2026-04-18 05:35 18.57825 73.98394 2913 ft 167 kts 275°
2026-04-18 05:36 18.57901 73.97177 2710 ft 165 kts 275°
2026-04-18 05:36 18.57973 73.95978 2500 ft 163 kts 275°
2026-04-18 05:36 18.58051 73.94797 2291 ft 160 kts 275°
2026-04-18 05:36 18.58126 73.93625 2098 ft 160 kts 275°
2026-04-18 05:37 18.58196 73.92484 1928 ft 145 kts 275°
2026-04-18 05:37 18.58254 73.91566 1923 ft 102 kts 273°
2026-04-18 05:37 18.58285 73.91040 1923 ft 30 kts 273°
2026-04-18 05:37 18.58269 73.90950 1923 ft 3 kts 178°
2026-04-18 05:38 18.58250 73.90950 1923 ft 2 kts 179°
2026-04-18 05:38 18.58197 73.90942 1923 ft 11 kts 189°
2026-04-18 05:38 18.58131 73.90928 1925 ft 9 kts 191°
2026-04-18 05:38 18.58076 73.90921 1924 ft 7 kts 169°
2026-04-18 05:39 18.58048 73.90973 1924 ft 8 kts 97°
2026-04-18 05:39 18.58042 73.91025 1923 ft 6 kts 97°
2026-04-18 05:39 18.58037 73.91067 1925 ft 5 kts 97°
2026-04-18 05:39 18.58024 73.91096 1924 ft 6 kts 149°
2026-04-18 05:40 18.58002 73.91094 1924 ft 2 kts 183°
2026-04-18 05:40 18.57984 73.91092 1923 ft 3 kts 187°
2026-04-18 05:40 18.57977 73.91090 1923 ft 0 kts 188°
2026-04-18 05:40 18.57976 73.91090 1923 ft 0 kts 188°
2026-04-18 06:04 18.57988 73.91092 1925 ft 3 kts 183°
2026-04-18 06:04 18.58008 73.91091 1928 ft 3 kts 166°
2026-04-18 06:05 18.58026 73.91084 1925 ft 3 kts 140°
2026-04-18 06:05 18.58037 73.91071 1925 ft 2 kts 101°
2026-04-18 06:05 18.58037 73.91068 1925 ft 0 kts 98°
2026-04-18 06:07 18.58035 73.91084 1925 ft 9 kts 98°
2026-04-18 06:07 18.58026 73.91155 1925 ft 10 kts 98°
2026-04-18 06:08 18.58064 73.91205 1925 ft 9 kts 23°
2026-04-18 06:08 18.58112 73.91265 1925 ft 18 kts 84°
2026-04-18 06:08 18.58101 73.91421 1925 ft 22 kts 93°
2026-04-18 06:08 18.58091 73.91588 1925 ft 24 kts 94°
2026-04-18 06:09 18.58080 73.91765 1925 ft 25 kts 94°
2026-04-18 06:09 18.58069 73.91948 1925 ft 26 kts 94°
2026-04-18 06:09 18.58060 73.92074 1925 ft 26 kts 94°
2026-04-18 06:09 18.58049 73.92268 1925 ft 27 kts 93°
2026-04-18 06:10 18.58037 73.92468 1925 ft 28 kts 93°
2026-04-18 06:10 18.58024 73.92673 1925 ft 28 kts 94°
2026-04-18 06:10 18.58011 73.92863 1925 ft 23 kts 94°
2026-04-18 06:10 18.58016 73.92999 1925 ft 12 kts 38°
2026-04-18 06:11 18.58098 73.93004 1925 ft 12 kts
2026-04-18 06:11 18.58163 73.92992 1925 ft 5 kts 283°
2026-04-18 06:11 18.58163 73.92978 1925 ft 1 kts 274°
2026-04-18 06:11 18.58166 73.92926 1925 ft 31 kts 274°
2026-04-18 06:12 18.58203 73.92366 1925 ft 119 kts 274°
2026-04-18 06:12 18.58281 73.91245 2021 ft 175 kts 275°
2026-04-18 06:12 18.58390 73.89938 2664 ft 183 kts 276°
2026-04-18 06:12 18.58497 73.88593 2947 ft 195 kts 275°
2026-04-18 06:13 18.58590 73.87083 3134 ft 218 kts 274°
2026-04-18 06:13 18.58688 73.85387 3377 ft 244 kts 274°
2026-04-18 06:13 18.58798 73.83509 3718 ft 268 kts 274°
2026-04-18 06:13 18.59014 73.81515 4336 ft 279 kts 289°
2026-04-18 06:14 18.60048 73.79803 5087 ft 281 kts 318°
2026-04-18 06:14 18.61612 73.78554 5826 ft 284 kts 330°
2026-04-18 06:14 18.63340 73.77514 6573 ft 288 kts 331°
2026-04-18 06:14 18.64911 73.76180 7313 ft 295 kts 309°
2026-04-18 06:15 18.66036 73.74352 8098 ft 298 kts 298°
2026-04-18 06:15 18.67031 73.72422 8893 ft 301 kts 297°
2026-04-18 06:15 18.67988 73.70446 9725 ft 304 kts 295°
2026-04-18 06:15 18.68912 73.68406 10278 ft 318 kts 295°
2026-04-18 06:16 18.69881 73.66212 10496 ft 341 kts 294°
2026-04-18 06:16 18.70890 73.63915 10879 ft 355 kts 294°
2026-04-18 06:16 18.71942 73.61541 11520 ft 360 kts 294°
2026-04-18 06:16 18.73015 73.59142 12239 ft 363 kts 294°
2026-04-18 06:17 18.74106 73.56723 12911 ft 366 kts 294°
2026-04-18 06:17 18.75208 73.54286 13610 ft 369 kts 294°
2026-04-18 06:17 18.76321 73.51829 14243 ft 372 kts 294°
2026-04-18 06:17 18.77443 73.49356 14842 ft 376 kts 294°
2026-04-18 06:18 18.78580 73.46847 15472 ft 379 kts 294°
2026-04-18 06:18 18.79719 73.44325 16078 ft 383 kts 294°
2026-04-18 06:18 18.80868 73.41776 16655 ft 386 kts 294°
2026-04-18 06:18 18.82075 73.39226 17214 ft 390 kts 296°
2026-04-18 06:19 18.83337 73.36723 17793 ft 393 kts 297°
2026-04-18 06:19 18.84662 73.34188 18343 ft 396 kts 298°
2026-04-18 06:19 18.86011 73.31639 18862 ft 399 kts 298°
2026-04-18 06:19 18.87360 73.29073 19392 ft 400 kts 297°
2026-04-18 06:20 18.88708 73.26488 19938 ft 402 kts 297°
2026-04-18 06:20 18.90050 73.23889 20490 ft 404 kts 297°
2026-04-18 06:20 18.91390 73.21270 21023 ft 406 kts 296°
2026-04-18 06:20 18.92735 73.18629 21560 ft 409 kts 296°
2026-04-18 06:21 18.94083 73.15977 22085 ft 411 kts 296°
2026-04-18 06:21 18.95440 73.13306 22600 ft 413 kts 296°
2026-04-18 06:21 18.96806 73.10632 23105 ft 415 kts 296°
2026-04-18 06:21 18.98183 73.07940 23564 ft 417 kts 295°
2026-04-18 06:22 18.99569 73.05232 23970 ft 419 kts 295°
2026-04-18 06:22 19.00955 73.02519 24379 ft 421 kts 295°
2026-04-18 06:22 19.02330 72.99820 24759 ft 422 kts 295°
2026-04-18 06:22 19.03724 72.97081 25130 ft 424 kts 295°
2026-04-18 06:23 19.05158 72.94345 25487 ft 428 kts 299°
2026-04-18 06:23 19.07031 72.91870 25851 ft 436 kts 312°
2026-04-18 06:23 19.09427 72.89869 26194 ft 444 kts 325°
2026-04-18 06:23 19.12256 72.88479 26540 ft 454 kts 339°
2026-04-18 06:24 19.15374 72.87821 26856 ft 463 kts 353°
2026-04-18 06:24 19.18619 72.87859 27191 ft 468 kts 359°
2026-04-18 06:24 19.21879 72.88006 27521 ft 470 kts 359°
2026-04-18 06:24 19.25159 72.88156 27846 ft 473 kts 359°
2026-04-18 06:25 19.28456 72.88305 28166 ft 475 kts 359°
2026-04-18 06:25 19.31770 72.88451 28473 ft 478 kts 359°
2026-04-18 06:25 19.35106 72.88594 28778 ft 480 kts 359°
2026-04-18 06:25 19.38450 72.88736 29072 ft 482 kts 359°
2026-04-18 06:26 19.41809 72.88876 29363 ft 484 kts 359°
2026-04-18 06:26 19.45141 72.89015 29652 ft 486 kts 359°
2026-04-18 06:26 19.48533 72.89156 29928 ft 488 kts 359°
2026-04-18 06:26 19.51933 72.89301 30152 ft 490 kts 359°
2026-04-18 06:27 19.55355 72.89448 30364 ft 492 kts 359°
2026-04-18 06:27 19.58791 72.89597 30572 ft 494 kts 359°
2026-04-18 06:27 19.62229 72.89746 30811 ft 495 kts 359°
2026-04-18 06:27 19.65685 72.89894 31092 ft 495 kts 359°
2026-04-18 06:28 19.69141 72.90041 31369 ft 495 kts 359°
2026-04-18 06:28 19.72581 72.90187 31637 ft 496 kts 359°
2026-04-18 06:28 19.76030 72.90334 31911 ft 496 kts 359°
2026-04-18 06:28 19.79437 72.90478 32177 ft 496 kts 359°
2026-04-18 06:29 19.82888 72.90626 32453 ft 496 kts 359°
2026-04-18 06:29 19.86345 72.90774 32730 ft 497 kts 359°
2026-04-18 06:29 19.89798 72.90923 33001 ft 497 kts 359°
2026-04-18 06:29 19.93260 72.91073 33259 ft 497 kts 358°
2026-04-18 06:30 19.96722 72.91222 33538 ft 498 kts 358°
2026-04-18 06:30 20.00186 72.91372 33816 ft 498 kts 358°
2026-04-18 06:30 20.03657 72.91522 34057 ft 499 kts 358°
2026-04-18 06:30 20.07123 72.91671 34296 ft 499 kts 358°
2026-04-18 06:31 20.10591 72.91817 34541 ft 498 kts 358°
2026-04-18 06:31 20.14060 72.91963 34792 ft 498 kts 358°
2026-04-18 06:31 20.17478 72.92108 35025 ft 498 kts 358°
2026-04-18 06:31 20.20953 72.92257 35243 ft 498 kts 358°
2026-04-18 06:32 20.24416 72.92409 35469 ft 498 kts 358°
2026-04-18 06:32 20.27876 72.92561 35687 ft 497 kts 358°
2026-04-18 06:32 20.31336 72.92710 35901 ft 497 kts 358°
2026-04-18 06:32 20.34791 72.92857 36108 ft 497 kts 358°
2026-04-18 06:33 20.38246 72.93006 36311 ft 497 kts 357°
2026-04-18 06:33 20.41696 72.93155 36505 ft 496 kts 357°
2026-04-18 06:33 20.45161 72.93304 36701 ft 496 kts 357°
2026-04-18 06:33 20.48609 72.93452 36873 ft 496 kts 357°
2026-04-18 06:34 20.52027 72.93601 36921 ft 497 kts 357°
2026-04-18 06:34 20.58932 72.93903 36921 ft 496 kts 357°
2026-04-18 06:35 20.65835 72.94197 36914 ft 496 kts 357°
2026-04-18 06:35 20.72748 72.94491 36916 ft 496 kts 357°
2026-04-18 06:36 20.79615 72.94784 36911 ft 496 kts 357°
2026-04-18 06:36 20.86519 72.95036 36914 ft 496 kts 356°
2026-04-18 06:37 20.93429 72.95272 36918 ft 497 kts 356°
2026-04-18 06:37 21.00345 72.95523 36918 ft 497 kts 356°
2026-04-18 06:38 21.07257 72.95778 36918 ft 497 kts 356°
2026-04-18 06:38 21.14171 72.96037 36918 ft 497 kts 356°
2026-04-18 06:39 21.21048 72.97205 36918 ft 507 kts 14°
2026-04-18 06:39 21.27708 72.99755 36917 ft 508 kts 17°
2026-04-18 06:40 21.34328 73.02315 36917 ft 508 kts 17°
2026-04-18 06:40 21.41025 73.04910 36914 ft 508 kts 16°
2026-04-18 06:41 21.47647 73.07467 36921 ft 508 kts 16°
2026-04-18 06:41 21.54319 73.10046 36915 ft 508 kts 16°
2026-04-18 06:42 21.60973 73.12616 36915 ft 508 kts 16°
2026-04-18 06:42 21.67637 73.15188 36915 ft 508 kts 16°
2026-04-18 06:43 21.74296 73.17777 36910 ft 508 kts 17°
2026-04-18 06:43 21.80946 73.20367 36911 ft 508 kts 16°
2026-04-18 06:44 21.87599 73.22951 36907 ft 508 kts 16°
2026-04-18 06:44 21.94248 73.25529 36907 ft 508 kts 16°
2026-04-18 06:45 22.00898 73.28118 36900 ft 508 kts 16°
2026-04-18 06:45 22.07494 73.30698 36896 ft 507 kts 16°
2026-04-18 06:46 22.14137 73.33285 36893 ft 507 kts 16°
2026-04-18 06:46 22.20775 73.35870 36889 ft 507 kts 16°
2026-04-18 06:47 22.27427 73.38466 36888 ft 507 kts 17°
2026-04-18 06:47 22.34065 73.41066 36890 ft 507 kts 17°
2026-04-18 06:48 22.40700 73.43672 36894 ft 507 kts 17°
2026-04-18 06:48 22.47335 73.46277 36898 ft 507 kts 17°
2026-04-18 06:49 22.53966 73.48881 36901 ft 507 kts 17°
2026-04-18 06:49 22.60567 73.51478 36908 ft 507 kts 17°
2026-04-18 06:50 22.67216 73.54093 36914 ft 507 kts 16°
2026-04-18 06:50 22.73860 73.56700 36915 ft 507 kts 16°
2026-04-18 06:51 22.80457 73.59301 36922 ft 507 kts 17°
2026-04-18 06:51 22.87087 73.61921 36930 ft 507 kts 16°
2026-04-18 06:52 22.93722 73.64539 36927 ft 507 kts 17°
2026-04-18 06:52 23.00356 73.67169 36930 ft 507 kts 16°
2026-04-18 06:53 23.06979 73.69789 36933 ft 507 kts 16°
2026-04-18 06:53 23.13610 73.72408 36932 ft 507 kts 16°
2026-04-18 06:54 23.20231 73.75033 36938 ft 506 kts 16°
2026-04-18 06:54 23.26853 73.77665 36934 ft 506 kts 17°
2026-04-18 06:55 23.33468 73.80304 36938 ft 506 kts 17°
2026-04-18 06:55 23.40043 73.82935 36940 ft 506 kts 17°
2026-04-18 06:56 23.45552 73.85127 36940 ft 506 kts 16°
2026-04-18 06:56 23.52163 73.87751 36947 ft 506 kts 16°
2026-04-18 06:57 23.58781 73.90381 36944 ft 505 kts 17°
2026-04-18 06:57 23.68689 73.94346 36949 ft 505 kts 16°
2026-04-18 06:58 23.75296 73.96983 36953 ft 504 kts 16°
2026-04-18 06:58 23.81852 73.99608 36957 ft 504 kts 17°
2026-04-18 06:59 23.88432 74.02255 36957 ft 504 kts 17°
2026-04-18 06:59 23.95017 74.04895 36957 ft 503 kts 16°
2026-04-18 07:00 24.01593 74.07529 36963 ft 503 kts 17°
2026-04-18 07:00 24.08163 74.10172 36967 ft 502 kts 17°
2026-04-18 07:01 24.14724 74.12810 36969 ft 501 kts 17°
2026-04-18 07:01 24.21227 74.15422 36972 ft 501 kts 17°
2026-04-18 07:02 24.27769 74.18059 36974 ft 500 kts 17°
2026-04-18 07:02 24.34305 74.20698 36975 ft 500 kts 17°
2026-04-18 07:03 24.40832 74.23334 36974 ft 499 kts 17°
2026-04-18 07:03 24.47353 74.25967 36969 ft 499 kts 17°
2026-04-18 07:04 24.53825 74.28596 36968 ft 499 kts 17°
2026-04-18 07:04 24.60343 74.31250 36973 ft 499 kts 17°
2026-04-18 07:05 24.66854 74.33893 36969 ft 498 kts 17°
2026-04-18 07:05 24.73361 74.36539 36966 ft 498 kts 17°
2026-04-18 07:06 24.79819 74.39173 36964 ft 498 kts 17°
2026-04-18 07:06 24.86318 74.41821 36953 ft 497 kts 17°
2026-04-18 07:07 24.92814 74.44470 36952 ft 497 kts 17°
2026-04-18 07:07 24.99309 74.47119 36954 ft 497 kts 17°
2026-04-18 07:08 25.05761 74.49755 36953 ft 496 kts 17°
2026-04-18 07:08 25.12236 74.52407 36950 ft 496 kts 17°
2026-04-18 07:09 25.18710 74.55065 36950 ft 496 kts 17°
2026-04-18 07:09 25.25179 74.57727 36948 ft 495 kts 17°
2026-04-18 07:10 25.31636 74.60390 36943 ft 495 kts 17°
2026-04-18 07:10 25.38055 74.63041 36940 ft 495 kts 17°
2026-04-18 07:11 25.44538 74.65727 36942 ft 494 kts 17°
2026-04-18 07:11 25.50950 74.68377 36937 ft 494 kts 17°
2026-04-18 07:12 25.57389 74.71041 36937 ft 494 kts 17°
2026-04-18 07:12 25.63828 74.73713 36941 ft 493 kts 17°
2026-04-18 07:13 25.70254 74.76385 36940 ft 493 kts 17°
2026-04-18 07:13 25.76688 74.79058 36936 ft 493 kts 17°
2026-04-18 07:14 25.83077 74.81708 36938 ft 493 kts 17°
2026-04-18 07:14 25.89493 74.84380 36935 ft 492 kts 17°
2026-04-18 07:15 25.95914 74.87064 36937 ft 492 kts 17°
2026-04-18 07:15 26.02328 74.89739 36941 ft 492 kts 17°
2026-04-18 07:16 26.08737 74.92413 36939 ft 491 kts 17°
2026-04-18 07:16 26.15135 74.95094 36939 ft 491 kts 17°
2026-04-18 07:17 26.21526 74.97773 36940 ft 491 kts 17°
2026-04-18 07:17 26.27879 75.00431 36939 ft 490 kts 17°
2026-04-18 07:18 26.34283 75.03101 36939 ft 490 kts 17°
2026-04-18 07:18 26.40662 75.05770 36939 ft 490 kts 17°
2026-04-18 07:19 26.47051 75.08450 36938 ft 490 kts 17°
2026-04-18 07:19 26.53430 75.11120 36934 ft 489 kts 17°
2026-04-18 07:20 26.59809 75.13787 36933 ft 489 kts 17°
2026-04-18 07:20 26.66139 75.16441 36936 ft 489 kts 17°
2026-04-18 07:21 26.72510 75.19112 36930 ft 489 kts 17°
2026-04-18 07:21 26.78878 75.21791 36933 ft 489 kts 17°
2026-04-18 07:22 26.85233 75.24476 36925 ft 488 kts 17°
2026-04-18 07:22 26.91588 75.27155 36929 ft 488 kts 17°
2026-04-18 07:23 26.97942 75.29824 36924 ft 488 kts 17°
2026-04-18 07:23 27.04290 75.32509 36922 ft 487 kts 17°
2026-04-18 07:24 27.10593 75.35177 36927 ft 487 kts 17°
2026-04-18 07:24 27.16939 75.37870 36923 ft 487 kts 17°
2026-04-18 07:25 27.22921 75.41520 36915 ft 494 kts 35°
2026-04-18 07:25 27.27970 75.46789 36924 ft 496 kts 42°
2026-04-18 07:26 27.32897 75.52223 36866 ft 496 kts 42°
2026-04-18 07:26 27.35361 75.54937 36521 ft 495 kts 42°
2026-04-18 07:26 27.37825 75.57654 36113 ft 495 kts 42°
2026-04-18 07:27 27.40281 75.60366 35724 ft 495 kts 42°
2026-04-18 07:27 27.42707 75.63048 35334 ft 495 kts 42°
2026-04-18 07:27 27.45167 75.65772 34954 ft 496 kts 42°
2026-04-18 07:27 27.47661 75.68536 34569 ft 496 kts 42°
2026-04-18 07:28 27.50093 75.71237 34200 ft 497 kts 42°
2026-04-18 07:28 27.52559 75.73978 33821 ft 497 kts 42°
2026-04-18 07:28 27.55025 75.76716 33402 ft 498 kts 42°
2026-04-18 07:28 27.57497 75.79456 32978 ft 498 kts 42°
2026-04-18 07:29 27.59963 75.82191 32567 ft 498 kts 42°
2026-04-18 07:29 27.62434 75.84936 32159 ft 498 kts 42°
2026-04-18 07:29 27.64927 75.87662 31757 ft 496 kts 40°
2026-04-18 07:29 27.67475 75.90266 31366 ft 492 kts 38°
2026-04-18 07:30 27.70065 75.92764 30967 ft 488 kts 37°
2026-04-18 07:30 27.72644 75.95170 30595 ft 484 kts 36°
2026-04-18 07:30 27.75239 75.97569 30220 ft 481 kts 36°
2026-04-18 07:30 27.77810 75.99972 29832 ft 479 kts 37°
2026-04-18 07:31 27.80354 76.02388 29390 ft 476 kts 37°
2026-04-18 07:31 27.82867 76.04812 28958 ft 473 kts 38°
2026-04-18 07:31 27.85333 76.07265 28528 ft 471 kts 42°
2026-04-18 07:31 27.87369 76.10164 28046 ft 471 kts 58°
2026-04-18 07:32 27.88906 76.13418 27589 ft 469 kts 62°
2026-04-18 07:32 27.90396 76.16689 27136 ft 466 kts 62°
2026-04-18 07:32 27.91870 76.19951 26687 ft 463 kts 62°
2026-04-18 07:32 27.93325 76.23187 26246 ft 459 kts 62°
2026-04-18 07:33 27.94762 76.26393 25810 ft 456 kts 62°
2026-04-18 07:33 27.96193 76.29588 25382 ft 453 kts 62°
2026-04-18 07:33 27.97599 76.32719 24973 ft 450 kts 62°
2026-04-18 07:33 27.99014 76.35866 24560 ft 448 kts 62°
2026-04-18 07:34 28.00422 76.38990 24153 ft 445 kts 62°
2026-04-18 07:34 28.01825 76.42099 23749 ft 442 kts 62°
2026-04-18 07:34 28.03224 76.45197 23340 ft 439 kts 62°
2026-04-18 07:34 28.04603 76.48262 22871 ft 436 kts 62°
2026-04-18 07:35 28.06247 76.51118 22383 ft 430 kts 46°
2026-04-18 07:35 28.08458 76.53342 21964 ft 420 kts 30°
2026-04-18 07:35 28.11028 76.54838 21580 ft 413 kts 20°
2026-04-18 07:35 28.13654 76.56141 21190 ft 411 kts 20°
2026-04-18 07:36 28.16265 76.57434 20752 ft 408 kts 20°
2026-04-18 07:36 28.18855 76.58719 20309 ft 404 kts 20°
2026-04-18 07:36 28.21419 76.59991 19879 ft 400 kts 20°
2026-04-18 07:36 28.23960 76.61251 19456 ft 397 kts 20°
2026-04-18 07:37 28.26480 76.62500 19039 ft 393 kts 20°
2026-04-18 07:37 28.28975 76.63739 18620 ft 389 kts 20°
2026-04-18 07:37 28.31412 76.64953 18227 ft 386 kts 20°
2026-04-18 07:37 28.33862 76.66174 17770 ft 383 kts 20°
2026-04-18 07:38 28.36292 76.67387 17310 ft 380 kts 20°
2026-04-18 07:38 28.38691 76.68584 16846 ft 371 kts 20°
2026-04-18 07:38 28.41007 76.69740 16394 ft 357 kts 21°
2026-04-18 07:38 28.43070 76.71212 15959 ft 349 kts 41°
2026-04-18 07:39 28.44494 76.73406 15522 ft 345 kts 65°
2026-04-18 07:39 28.45081 76.76028 15101 ft 346 kts 88°
2026-04-18 07:39 28.44758 76.78728 14680 ft 344 kts 110°
2026-04-18 07:39 28.43658 76.81112 14255 ft 341 kts 127°
2026-04-18 07:40 28.42286 76.83309 13847 ft 340 kts 133°
2026-04-18 07:40 28.40664 76.85222 13738 ft 331 kts 138°
2026-04-18 07:40 28.39022 76.87041 13736 ft 328 kts 138°
2026-04-18 07:40 28.37379 76.88835 13735 ft 327 kts 141°
2026-04-18 07:41 28.35471 76.90155 13727 ft 320 kts 165°
2026-04-18 07:41 28.33302 76.90485 13726 ft 313 kts 189°
2026-04-18 07:41 28.31256 76.89786 13721 ft 306 kts 213°
2026-04-18 07:41 28.29692 76.88214 13719 ft 301 kts 237°
2026-04-18 07:42 28.29054 76.86831 13720 ft 299 kts 253°
2026-04-18 07:42 28.28951 76.83757 13710 ft 299 kts 285°
2026-04-18 07:42 28.29910 76.81674 13716 ft 302 kts 309°
2026-04-18 07:42 28.31584 76.80234 13708 ft 308 kts 334°
2026-04-18 07:43 28.33685 76.79708 13710 ft 315 kts 358°
2026-04-18 07:43 28.35158 76.79939 13720 ft 320 kts 14°
2026-04-18 07:43 28.37260 76.80849 13388 ft 327 kts 20°
2026-04-18 07:43 28.39363 76.81891 12808 ft 331 kts 21°
2026-04-18 07:44 28.41445 76.82938 12232 ft 324 kts 21°
2026-04-18 07:44 28.43456 76.83954 11679 ft 317 kts 21°
2026-04-18 07:44 28.45412 76.85073 11129 ft 314 kts 33°
2026-04-18 07:44 28.46961 76.86811 10590 ft 314 kts 55°
2026-04-18 07:45 28.47843 76.89064 10080 ft 313 kts 78°
2026-04-18 07:45 28.47924 76.91518 9893 ft 313 kts 99°
2026-04-18 07:45 28.47475 76.93940 9554 ft 312 kts 104°
2026-04-18 07:45 28.46978 76.96328 9193 ft 310 kts 104°
2026-04-18 07:46 28.46472 76.98701 8854 ft 308 kts 105°
2026-04-18 07:46 28.45966 77.01053 8489 ft 304 kts 105°
2026-04-18 07:46 28.45466 77.03382 8133 ft 303 kts 105°
2026-04-18 07:46 28.44971 77.05701 7776 ft 301 kts 104°
2026-04-18 07:47 28.44482 77.08004 7418 ft 299 kts 104°
2026-04-18 07:47 28.43998 77.10294 7065 ft 297 kts 104°
2026-04-18 07:47 28.43516 77.12566 6712 ft 295 kts 105°
2026-04-18 07:47 28.43036 77.14824 6374 ft 293 kts 104°
2026-04-18 07:48 28.42557 77.17067 6016 ft 292 kts 104°
2026-04-18 07:48 28.42080 77.19298 5656 ft 290 kts 104°
2026-04-18 07:48 28.41609 77.21514 5292 ft 288 kts 104°
2026-04-18 07:48 28.41146 77.23719 4937 ft 284 kts 104°
2026-04-18 07:49 28.40708 77.25819 4578 ft 269 kts 104°
2026-04-18 07:49 28.40288 77.27833 4211 ft 257 kts 102°
2026-04-18 07:49 28.40271 77.29824 3852 ft 253 kts 74°
2026-04-18 07:49 28.41107 77.31540 3514 ft 250 kts 45°
2026-04-18 07:50 28.42532 77.32636 3167 ft 248 kts 22°
2026-04-18 07:50 28.44183 77.33131 2832 ft 245 kts
2026-04-18 07:50 28.45872 77.33004 2778 ft 244 kts 346°
2026-04-18 07:51 28.48742 77.31115 2792 ft 243 kts 310°
2026-04-18 07:51 28.49654 77.29561 2791 ft 232 kts 293°
2026-04-18 07:51 28.50126 77.27866 2795 ft 221 kts 283°
2026-04-18 07:51 28.50489 77.26182 2803 ft 219 kts 283°
2026-04-18 07:52 28.50842 77.24545 2826 ft 204 kts 283°
2026-04-18 07:52 28.51166 77.23049 2798 ft 187 kts 283°
2026-04-18 07:52 28.51468 77.21648 2777 ft 180 kts 283°
2026-04-18 07:52 28.51765 77.20273 2606 ft 178 kts 283°
2026-04-18 07:53 28.52058 77.18912 2406 ft 177 kts 283°
2026-04-18 07:53 28.52350 77.17560 2187 ft 176 kts 283°
2026-04-18 07:53 28.52633 77.16247 1979 ft 166 kts 283°
2026-04-18 07:53 28.52903 77.14993 1775 ft 161 kts 283°
2026-04-18 07:54 28.53167 77.13764 1572 ft 158 kts 283°
2026-04-18 07:54 28.53427 77.12558 1360 ft 157 kts 284°
2026-04-18 07:54 28.53684 77.11362 1125 ft 154 kts 284°
2026-04-18 07:54 28.53939 77.10174 904 ft 153 kts 284°
2026-04-18 07:55 28.54186 77.09022 762 ft 138 kts 284°
2026-04-18 07:55 28.54374 77.08146 759 ft 89 kts 283°
2026-04-18 07:55 28.54479 77.07654 757 ft 42 kts 286°
2026-04-18 07:55 28.54601 77.07430 762 ft 20 kts 310°
2026-04-18 07:56 28.54690 77.07393 766 ft 8 kts 45°
2026-04-18 07:56 28.54720 77.07433 767 ft 6 kts 50°
2026-04-18 07:56 28.54753 77.07458 766 ft 6 kts 31°
2026-04-18 07:56 28.54793 77.07487 764 ft 8 kts 35°
2026-04-18 07:57 28.54866 77.07541 763 ft 15 kts 23°
2026-04-18 07:57 28.54964 77.07574 767 ft 15 kts 13°
2026-04-18 07:57 28.55068 77.07602 771 ft 17 kts 13°
2026-04-18 07:57 28.55193 77.07640 773 ft 17 kts 16°
2026-04-18 07:58 28.55263 77.07784 773 ft 15 kts 102°
2026-04-18 07:58 28.55265 77.07918 773 ft 6 kts 61°
2026-04-18 07:58 28.55280 77.07950 773 ft 0 kts 61°
2026-04-18 07:59 28.55287 77.07962 773 ft 3 kts 46°
2026-04-18 07:59 28.55314 77.07954 773 ft 9 kts 340°
2026-04-18 07:59 28.55362 77.07922 773 ft 6 kts 329°
2026-04-18 07:59 28.55364 77.07921 773 ft 0 kts 329°